| time (UTC) | temp F | wind direction | speed MPH | gust MPH | rain 1hr in | rain 24hr in | rain mn in | humidity % | barometer mb |
| 20260506181531 | 81 | 116 | 7.0 | 11.0 | 0.00 | 0.00 | 0.00 | 83 | 1010.3 |
| 20260506180034 | 81 | 130 | 6.0 | 10.0 | 0.00 | 0.00 | 0.00 | 82 | 1010.4 |
| 20260506174531 | 82 | 114 | 5.0 | 10.0 | 0.00 | 0.00 | 0.00 | 81 | 1010.4 |
| 20260506173032 | 82 | 126 | 5.0 | 11.0 | 0.00 | 0.00 | 0.00 | 81 | 1010.3 |
| 20260506171548 | 83 | 138 | 4.0 | 13.0 | 0.00 | 0.00 | 0.00 | 81 | 1010.1 |
| 20260506170037 | 82 | 144 | 4.0 | 10.0 | 0.00 | 0.00 | 0.00 | 82 | 1010.2 |
| 20260506164539 | 81 | 146 | 4.0 | 12.0 | 0.00 | 0.00 | 0.00 | 84 | 1010.1 |
| 20260506163048 | 80 | 140 | 6.0 | 14.0 | 0.00 | 0.00 | 0.00 | 84 | 1010.2 |
| 20260506161556 | 80 | 140 | 5.0 | 12.0 | 0.00 | 0.00 | 0.00 | 84 | 1010.1 |
| 20260506160104 | 80 | 147 | 7.0 | 13.0 | 0.00 | 0.00 | 0.00 | 85 | 1010.0 |
| 20260506154557 | 80 | 142 | 6.0 | 13.0 | 0.00 | 0.00 | 0.00 | 85 | 1009.7 |
| 20260506153058 | 79 | 161 | 7.0 | 13.0 | 0.00 | 0.00 | 0.00 | 87 | 1009.6 |
| 20260506151508 | 79 | 146 | 9.0 | 15.0 | 0.00 | 0.00 | 0.00 | 88 | 1009.6 |
| 20260506150008 | 78 | 153 | 6.0 | 12.0 | 0.00 | 0.00 | 0.00 | 88 | 1009.5 |
| 20260506144512 | 78 | 145 | 7.0 | 12.0 | 0.00 | 0.00 | 0.00 | 87 | 1009.5 |
| 20260506143020 | 79 | 146 | 7.0 | 13.0 | 0.00 | 0.00 | 0.00 | 87 | 1009.5 |
| 20260506141522 | 79 | 140 | 9.0 | 12.0 | 0.00 | 0.00 | 0.00 | 86 | 1009.6 |
| 20260506140011 | 79 | 146 | 7.0 | 16.0 | 0.00 | 0.00 | 0.00 | 86 | 1009.6 |
| 20260506134526 | 79 | 144 | 8.0 | 14.0 | 0.00 | 0.00 | 0.00 | 86 | 1009.4 |
| 20260506133018 | 79 | 144 | 7.0 | 11.0 | 0.00 | 0.00 | 0.00 | 87 | 1009.6 |
| 20260506131526 | 79 | 148 | 6.0 | 11.0 | 0.00 | 0.00 | 0.00 | 87 | 1009.6 |
| 20260506130024 | 79 | 144 | 6.0 | 12.0 | 0.00 | 0.00 | 0.00 | 87 | 1009.4 |
| 20260506124528 | 78 | 146 | 5.0 | 12.0 | 0.00 | 0.00 | 0.00 | 87 | 1009.1 |
| 20260506123028 | 78 | 143 | 4.0 | 9.0 | 0.00 | 0.00 | 0.00 | 87 | 1009.0 |
| 20260506121530 | 78 | 140 | 3.0 | 7.0 | 0.00 | 0.00 | 0.00 | 87 | 1008.9 |
| 20260506120032 | 78 | 142 | 4.0 | 9.0 | 0.00 | 0.00 | 0.00 | 87 | 1008.8 |
| 20260506114543 | 78 | 143 | 4.0 | 9.0 | 0.00 | 0.00 | 0.00 | 87 | 1008.6 |
| 20260506113039 | 78 | 142 | 3.0 | 10.0 | 0.00 | 0.00 | 0.00 | 87 | 1008.6 |
| 20260506111547 | 78 | 146 | 4.0 | 8.0 | 0.00 | 0.00 | 0.00 | 87 | 1008.6 |
| 20260506110051 | 78 | 146 | 3.0 | 5.0 | 0.00 | 0.00 | 0.00 | 87 | 1008.6 |
| 20260506104553 | 78 | 146 | 3.0 | 8.0 | 0.00 | 0.00 | 0.00 | 87 | 1008.4 |
| 20260506103105 | 78 | 148 | 2.0 | 8.0 | 0.00 | 0.00 | 0.00 | 87 | 1008.3 |
| 20260506101506 | 78 | 147 | 4.0 | 9.0 | 0.00 | 0.00 | 0.00 | 87 | 1008.3 |
| 20260506100016 | 78 | 146 | 4.0 | 10.0 | 0.00 | 0.00 | 0.00 | 87 | 1008.3 |
| 20260506094519 | 78 | 142 | 5.0 | 9.0 | 0.00 | 0.00 | 0.00 | 87 | 1008.0 |
| 20260506093021 | 78 | 148 | 6.0 | 11.0 | 0.00 | 0.00 | 0.00 | 87 | 1008.0 |
| 20260506091524 | 78 | 148 | 6.0 | 12.0 | 0.00 | 0.00 | 0.00 | 87 | 1007.9 |
| 20260506090029 | 78 | 143 | 8.0 | 13.0 | 0.00 | 0.00 | 0.00 | 86 | 1007.7 |
| 20260506084536 | 78 | 144 | 8.0 | 18.0 | 0.00 | 0.00 | 0.00 | 86 | 1007.7 |
| 20260506083037 | 78 | 132 | 8.0 | 16.0 | 0.00 | 0.00 | 0.00 | 86 | 1007.6 |
| 20260506081547 | 78 | 147 | 9.0 | 18.0 | 0.00 | 0.00 | 0.00 | 86 | 1007.5 |
| 20260506073042 | 79 | 136 | 7.0 | 15.0 | 0.00 | 0.00 | 0.00 | 84 | 1008.4 |
| 20260506071553 | 79 | 155 | 6.0 | 14.0 | 0.00 | 0.00 | 0.00 | 84 | 1008.8 |
| 20260506070123 | 79 | 154 | 9.0 | 15.0 | 0.00 | 0.00 | 0.00 | 84 | 1008.8 |
| 20260506061601 | 79 | 151 | 7.0 | 17.0 | 0.00 | 0.00 | 0.00 | 86 | 1009.1 |
| 20260506061504 | 78 | 144 | 8.0 | 17.0 | 0.00 | 0.00 | 0.00 | 86 | 1009.1 |
| 20260506044520 | 79 | 143 | 9.0 | 16.0 | 0.00 | 0.00 | 0.00 | 85 | 1009.4 |
| 20260506043020 | 79 | 148 | 9.0 | 15.0 | 0.00 | 0.00 | 0.00 | 85 | 1009.5 |
| 20260506041526 | 79 | 157 | 9.0 | 14.0 | 0.00 | 0.00 | 0.00 | 86 | 1009.3 |
| 20260506040031 | 79 | 145 | 8.0 | 16.0 | 0.00 | 0.00 | 0.00 | 85 | 1009.2 |
| 20260506034534 | 79 | 140 | 10.0 | 17.0 | 0.00 | 0.00 | 0.00 | 85 | 1009.0 |
| 20260506033035 | 79 | 148 | 10.0 | 17.0 | 0.00 | 0.00 | 0.00 | 85 | 1008.8 |
| 20260506031541 | 79 | 139 | 9.0 | 18.0 | 0.00 | 0.00 | 0.00 | 85 | 1008.9 |
| 20260506030025 | 79 | 150 | 10.0 | 17.0 | 0.00 | 0.00 | 0.00 | 85 | 1008.8 |
| 20260506024525 | 79 | 159 | 9.0 | 14.0 | 0.00 | 0.00 | 0.00 | 85 | 1008.7 |
| 20260506023015 | 79 | 143 | 10.0 | 17.0 | 0.00 | 0.00 | 0.00 | 85 | 1008.4 |
| 20260506021519 | 79 | 143 | 10.0 | 20.0 | 0.00 | 0.00 | 0.00 | 85 | 1008.1 |
| 20260506020025 | 79 | 136 | 10.0 | 19.0 | 0.00 | 0.00 | 0.00 | 85 | 1008.0 |
| 20260506014529 | 79 | 127 | 11.0 | 17.0 | 0.00 | 0.00 | 0.00 | 85 | 1007.8 |
| 20260506013039 | 79 | 144 | 12.0 | 19.0 | 0.00 | 0.00 | 0.00 | 85 | 1007.6 |
| 20260506011607 | 79 | 142 | 10.0 | 20.0 | 0.00 | 0.00 | 0.00 | 84 | 1007.5 |
| 20260506010047 | 79 | 143 | 12.0 | 19.0 | 0.00 | 0.00 | 0.00 | 84 | 1007.3 |
| 20260506004601 | 79 | 157 | 11.0 | 20.0 | 0.00 | 0.00 | 0.00 | 84 | 1007.1 |
| 20260506003057 | 79 | 185 | 12.0 | 19.0 | 0.00 | 0.00 | 0.00 | 83 | 1007.0 |
| 20260506001604 | 80 | 134 | 11.0 | 20.0 | 0.00 | 0.00 | 0.00 | 83 | 1007.2 |
| 20260506001502 | 80 | 130 | 11.0 | 21.0 | 0.00 | 0.00 | 0.00 | 83 | 1007.0 |
| 20260506000003 | 80 | 148 | 11.0 | 19.0 | 0.00 | 0.00 | 0.00 | 82 | 1006.9 |
| 20260505234515 | 80 | 135 | 13.0 | 21.0 | 0.00 | 0.00 | 0.00 | 82 | 1006.8 |
| 20260505233009 | 81 | 134 | 12.0 | 22.0 | 0.00 | 0.00 | 0.00 | 81 | 1006.8 |
| 20260505231515 | 81 | 145 | 13.0 | 21.0 | 0.00 | 0.00 | 0.00 | 80 | 1006.7 |
| 20260505230109 | 81 | 167 | 13.0 | 24.0 | 0.00 | 0.00 | 0.00 | 80 | 1006.7 |
| 20260505230003 | 81 | 152 | 12.0 | 24.0 | 0.00 | 0.00 | 0.00 | 79 | 1006.8 |
| 20260505224559 | 81 | 142 | 13.0 | 21.0 | 0.00 | 0.00 | 0.00 | 79 | 1006.8 |
| 20260505224505 | 82 | 151 | 13.0 | 21.0 | 0.00 | 0.00 | 0.00 | 79 | 1007.0 |
| 20260505223051 | 82 | 160 | 13.0 | 21.0 | 0.00 | 0.00 | 0.00 | 79 | 1006.9 |
| 20260505221601 | 82 | 157 | 9.0 | 22.0 | 0.00 | 0.00 | 0.00 | 78 | 1007.1 |
| 20260505220053 | 82 | 136 | 11.0 | 21.0 | 0.00 | 0.00 | 0.00 | 78 | 1007.3 |
| 20260505214557 | 82 | 142 | 13.0 | 19.0 | 0.00 | 0.00 | 0.00 | 77 | 1007.4 |
| 20260505213003 | 82 | 138 | 13.0 | 21.0 | 0.00 | 0.00 | 0.00 | 78 | 1007.6 |
| 20260505211505 | 83 | 134 | 11.0 | 21.0 | 0.00 | 0.00 | 0.00 | 77 | 1007.7 |
| 20260505210007 | 83 | 138 | 14.0 | 24.0 | 0.00 | 0.00 | 0.00 | 76 | 1007.9 |
| 20260505204508 | 83 | 153 | 13.0 | 22.0 | 0.00 | 0.00 | 0.00 | 76 | 1008.0 |
| 20260505203013 | 83 | 116 | 12.0 | 21.0 | 0.00 | 0.00 | 0.00 | 76 | 1008.4 |
| 20260505201516 | 83 | 134 | 14.0 | 23.0 | 0.00 | 0.00 | 0.00 | 76 | 1008.5 |
| 20260505200021 | 83 | 141 | 12.0 | 21.0 | 0.00 | 0.00 | 0.00 | 77 | 1008.7 |
| 20260505194531 | 82 | 139 | 11.0 | 20.0 | 0.00 | 0.00 | 0.00 | 77 | 1008.7 |
| 20260505193030 | 82 | 128 | 14.0 | 21.0 | 0.00 | 0.00 | 0.00 | 76 | 1008.8 |
| 20260505191551 | 83 | 142 | 10.0 | 18.0 | 0.00 | 0.00 | 0.00 | 75 | 1008.9 |
| 20260505190025 | 83 | 147 | 13.0 | 21.0 | 0.00 | 0.00 | 0.00 | 76 | 1009.4 |
| 20260505184533 | 83 | 142 | 10.0 | 20.0 | 0.00 | 0.00 | 0.00 | 75 | 1009.5 |
| 20260505183034 | 84 | 157 | 12.0 | 20.0 | 0.00 | 0.00 | 0.00 | 74 | 1009.6 |